Regional Weather Roundup
Issued by NWS

Home | Current Version | Previous Version | Text Only | Print | Product List | Glossary On
Versions: 1 2 3 4 5 6 7 8 9 10 11 12 13 14 15 16 17 18 19 20 21 22 23 24 25 26 27 28 29 30 31 32 33 34 35 36 37 38 39 40 41 42 43 44 45 46 47 48 49 50
000
ASUS45 KBOU 252107
RWRCO

WEATHER ROUNDUP FOR COLORADO
NATIONAL WEATHER SERVICE DENVER/BOULDER CO
200 PM MST TUE NOV 25 2014

NOTE: "FAIR" INDICATES FEW OR NO CLOUDS BELOW 12000 FEET WITH NO
SIGNIFICANT WEATHER AND/OR OBSTRUCTIONS TO VISIBILITY.

COZ001>005-013-030-031-252200-
...NORTHWEST COLORADO...

CITY           SKY/WX    TMP DP  RH WIND       PRES   REMARKS
CRAIG          CLOUDY    27  20  75 E14       30.16F WCI  16
HAYDEN         CLOUDY    23  18  80 E12       30.16S WCI  12
MEEKER         CLOUDY    32  17  54 VRB3      30.20F
MOUNT WERNER   NOT AVBL
STEAMBOAT SPGS CLOUDY    23  20  91 SE5       30.16F WCI  16
WALDEN         CLOUDY    28  18  64 SW25G36   30.03F WCI  14
$$

COZ006>008-011-252200-
...WEST CENTRAL VALLEYS...

CITY           SKY/WX    TMP DP  RH WIND       PRES   REMARKS
GRAND JUNCTION MOSUNNY   37  15  40 SE6       30.31F
MONTROSE       CLOUDY    32  13  45 CALM      30.33F
EAGLE          FLURRIES  28  19  69 SW18      30.25F WCI  16
RIFLE          CLOUDY    26  19  74 E3        30.31F
DELTA          CLOUDY    38  21  50 E5        30.33F
NUCLA          CLOUDY    41   7  24 E6        30.36F
$$

COZ017>023-064>068-252200-
...SOUTHWEST COLORADO...

CITY           SKY/WX    TMP DP  RH WIND       PRES   REMARKS
DURANGO        SUNNY     44   8  23 S3        30.24F
CORTEZ         SUNNY     42   6  22 NW8       30.33F
PAGOSA SPRINGS SUNNY     34   6  30 S7        30.26F WCI  28
TELLURIDE      CLOUDY    26  15  64 E6        30.35S WCI  19
WOLF CREEK PAS SUNNY     23  10  58 MISG      30.23R
$$

COZ009-010-012-014-032>034-037-058>063-252200-
...CENTRAL COLORADO...

CITY           SKY/WX    TMP DP  RH WIND       PRES   REMARKS
ASPEN          LGT SNOW  23  19  85 CALM      30.22F VSB 1
BUENA VISTA    PTSUNNY   33  14  44 W28G39    30.07S WCI  20
COPPER MTN     CLOUDY    14   9  79 W25G33    30.08S WCI  -5
BERTHOUD PASS  NOT AVBL
COTTONWOOD PAS CLOUDY    28  16  59 NW24G46   30.03R HAZE    WCI  14
GUNNISON       CLOUDY    19  10  68 CALM      30.30F
KREMMLING      LGT SNOW  28  21  74 W8        30.13F WCI  20
LEADVILLE      SNOW      17  13  84 N15G21    30.14S VSB 1/2 WCI   2
MONARCH PASS   CLOUDY    10   9  92 W43       30.24F WCI -15
SALIDA         PTSUNNY   39  13  35 SW30G48   30.13S
SUNLIGHT       LGT SNOW N/A N/A N/A SW3       30.19F VSB 3/4
WILKERSON PASS PTSUNNY   23  10  58 MISG      29.95F
$$

COZ069>075-252200-
...SAN LUIS VALLEY/SANGRE DE CRISTO MOUNTAINS...

CITY           SKY/WX    TMP DP  RH WIND       PRES   REMARKS
ALAMOSA        CLOUDY    34   2  25 VRB5      30.19F WCI  30
LA VETA PASS   MOSUNNY   27   9  46 S16G33    30.05R WCI  14
SAGUACHE       NOT AVBL
$$

COZ035-036-038>040-252200-
...NORTHERN COLORADO FRONT RANGE...

CITY           SKY/WX    TMP DP  RH WIND       PRES   REMARKS
DENVER INTL AP CLOUDY    47  15  27 W17G25    29.84F
DMNS CITY PARK   N/A     45  15  30 NW20G28   29.86F
AURORA         PTSUNNY   45  15  30 W22G30    29.87F
FRONT RANGE AP NOT AVBL
ERIE MUNI ARPT PTSUNNY   49  13  23 W18G31    29.84F
BOULDER MUN AP PTSUNNY   48  16  27 W10       29.84F
CENTENNIAL     CLOUDY    45  17  32 NW16G25   29.88F
BROOMFIELD     PTSUNNY   45  16  31 W33G53    29.86F
FORT COLLINS   PTSUNNY   45  21  39 E10       29.83F
LONGMONT       PTSUNNY   55  16  21 E7        29.84F
$$

COZ041-046-047-076>085-087-088-252200-
...PIKES PEAK/PALMER DIVIDE AND SOUTHERN FOOTHILLS...

CITY           SKY/WX    TMP DP  RH WIND       PRES   REMARKS
COLO. SPRINGS  CLOUDY    47  14  26 NW14G29   29.91F
A. F. ACADEMY  NOT AVBL
ELLICOTT       NOT AVBL
FALCON         NOT AVBL
FORT CARSON    CLOUDY    44  15  31 SE12      29.89F
LIMON          CLOUDY    46  13  26 NW20G29   29.88F
MONUMENT HILL  CLOUDY    39  18  41 NW12      29.90F
TRINIDAD       MOSUNNY   49  19  30 W18G26    29.96F
$$

COZ042>045-048>051-090-091-252200-
...NORTHEAST COLORADO...

CITY           SKY/WX    TMP DP  RH WIND       PRES   REMARKS
GREELEY ARPT   CLOUDY    43  21  42 CALM      29.85F
AKRON          CLOUDY    47  11  23 W12       29.85F
BURLINGTON     CLOUDY    48   8  19 SW14      29.89F
WRAY           CLOUDY    52  11  19 W14G20    29.85F
STERLING       CLOUDY    52  21  30 W15       29.82F
HOLYOKE        CLOUDY    54  21  28 NW17G24   29.82F
FORT MORGAN    CLOUDY    48  12  23 W3        29.85F
$$

COZ086-089-092>099-252200-
...SOUTHEAST COLORADO...

CITY           SKY/WX    TMP DP  RH WIND       PRES   REMARKS
PUEBLO         PTSUNNY   54  15  21 NW17G29   29.89F
LA JUNTA       CLOUDY    54  15  21 W14       29.90F
LAMAR          PTSUNNY   53  12  19 MISG      29.89F
SPRINGFIELD      N/A     51  11  20 W16G25    29.93F
$$


USA.gov is the U.S. government's official web portal to all federal, state and local government web resources and services.